Weather History for Corlu, Turkey

Change the Weather History Date:

Friday, September 6, 2013

  Actual Average (LTBA) Record (LTBA)
Temperature  
Mean Temperature 68 °F -  
Max Temperature 78 °F 75 °F 82 °F (2007)
Min Temperature 57 °F 63 °F 53 °F (2003)
Cooling Degree Days 2    
Growing Degree Days 18 (Base 50)    
Moisture  
Dew Point 50 °F    
Average Humidity 54    
Maximum Humidity 88    
Minimum Humidity 28    
Precipitation  
Precipitation 0.00 in - - ()
Sea Level Pressure  
Sea Level Pressure 29.96 in    
Wind  
Wind Speed 7 mph ()    
Max Wind Speed 13 mph    
Max Gust Speed -    
Visibility 6.2 miles    
Events      
Averages and records for this station are not official NWS values.
T = Trace of Precipitation, MM = Missing Value Source: Averaged Metar Reports

Daily Weather History Graph

Daily Weather History Graph

Search for Another Location

Airport:

Trip Planner

Search our weather history database for the weather conditions in past years. The results will help you decide how hot, cold, wet, or windy it might be!

Date:

Astronomy

Sep. 06, 2013 Rise Set
Actual Time 6:39 AM EEST 7:32 PM EEST
Civil Twilight 6:11 AM EEST 8:00 PM EEST
Nautical Twilight 5:38 AM EEST 8:33 PM EEST
Astronomical Twilight 5:03 AM EEST 9:08 PM EEST
Moon 7:33 AM EEST (9/6) 7:45 PM EEST (9/6)
Length of Visible Light 13h 49m
Length of Day
12h 53m
New Moon, 1% of the Moon is Illuminated
Sep 6
New Moon
Sep 12
First Quarter
Sep 19
Full
Sep 27
Last Quarter
Oct 5
New

Hourly Weather History & Observations

Time (EEST) Temp. Dew Point Humidity Pressure Visibility Wind Dir Wind Speed Gust Speed Precip Events Conditions
12:20 AM 60.8 °F 48.2 °F 63% 30.01 in - ENE 8.1 mph - N/A   Clear
12:50 AM 60.8 °F 48.2 °F 63% 30.01 in - NE 8.1 mph - N/A   Clear
1:20 AM 60.8 °F 48.2 °F 63% 30.01 in - ENE 8.1 mph - N/A   Clear
1:50 AM 60.8 °F 48.2 °F 63% 30.01 in - ENE 6.9 mph - N/A   Clear
2:20 AM 59.0 °F 48.2 °F 67% 30.01 in - ENE 8.1 mph - N/A   Clear
2:50 AM 59.0 °F 50.0 °F 72% 30.01 in - ENE 8.1 mph - N/A   Clear
3:20 AM 59.0 °F 48.2 °F 67% 29.98 in - ENE 8.1 mph - N/A   Clear
3:50 AM 59.0 °F 50.0 °F 72% 29.98 in - East 5.8 mph - N/A   Clear
4:20 AM 59.0 °F 51.8 °F 77% 29.98 in - East 5.8 mph - N/A   Clear
4:50 AM 60.8 °F 51.8 °F 72% 29.95 in - East 5.8 mph - N/A   Clear
5:20 AM 59.0 °F 51.8 °F 77% 29.95 in - East 4.6 mph - N/A   Clear
5:50 AM 57.2 °F 51.8 °F 82% 29.95 in - East 4.6 mph - N/A   Clear
6:20 AM 59.0 °F 51.8 °F 77% 29.95 in - East 5.8 mph - N/A   Clear
6:50 AM 57.2 °F 53.6 °F 88% 29.95 in 6.2 mi East 4.6 mph - N/A   Partly Cloudy
7:20 AM 59.0 °F 53.6 °F 82% 29.95 in 6.2 mi NE 3.5 mph - N/A   Partly Cloudy
7:50 AM 66.2 °F 57.2 °F 73% 29.95 in 6.2 mi Variable 1.2 mph - N/A   Partly Cloudy
8:20 AM 68.0 °F 55.4 °F 64% 29.95 in 6.2 mi Variable 2.3 mph - N/A   Partly Cloudy
8:50 AM 69.8 °F 55.4 °F 60% 29.98 in 6.2 mi Variable 3.5 mph - N/A   Partly Cloudy
9:20 AM 71.6 °F 55.4 °F 57% 29.98 in 6.2 mi SSW 5.8 mph - N/A   Partly Cloudy
9:50 AM 71.6 °F 55.4 °F 57% 29.98 in 6.2 mi South 4.6 mph - N/A   Partly Cloudy
10:20 AM 73.4 °F 51.8 °F 47% 29.98 in - Variable 3.5 mph - N/A   Clear
10:50 AM 75.2 °F 46.4 °F 36% 29.98 in 6.2 mi South 5.8 mph - N/A   Partly Cloudy
11:20 AM 77.0 °F 46.4 °F 34% 29.98 in 6.2 mi SW 4.6 mph - N/A   Partly Cloudy
11:50 AM 77.0 °F 44.6 °F 32% 29.98 in 6.2 mi SW 8.1 mph - N/A   Scattered Clouds
12:20 PM 78.8 °F 44.6 °F 30% 29.95 in 6.2 mi ESE 4.6 mph - N/A   Scattered Clouds
12:50 PM 77.0 °F 48.2 °F 36% 29.95 in 6.2 mi SE 9.2 mph - N/A   Scattered Clouds
1:20 PM 77.0 °F 46.4 °F 34% 29.95 in 6.2 mi SSE 10.4 mph - N/A   Scattered Clouds
1:50 PM 77.0 °F 42.8 °F 29% 29.95 in 6.2 mi SSE 11.5 mph - N/A   Scattered Clouds
2:20 PM 77.0 °F 42.8 °F 29% 29.95 in 6.2 mi SSE 10.4 mph - N/A   Scattered Clouds
2:50 PM 78.8 °F 42.8 °F 28% 29.95 in 6.2 mi SSE 10.4 mph - N/A   Scattered Clouds
3:20 PM 78.8 °F 42.8 °F 28% 29.95 in 6.2 mi South 10.4 mph - N/A   Scattered Clouds
3:50 PM 78.8 °F 42.8 °F 28% 29.92 in 6.2 mi South 10.4 mph - N/A   Scattered Clouds
4:20 PM 77.0 °F 44.6 °F 32% 29.92 in 6.2 mi SSE 11.5 mph - N/A   Scattered Clouds
4:50 PM 77.0 °F 44.6 °F 32% 29.92 in 6.2 mi SSE 10.4 mph - N/A   Scattered Clouds
5:20 PM 77.0 °F 44.6 °F 32% 29.92 in 6.2 mi SSE 9.2 mph - N/A   Scattered Clouds
5:50 PM 75.2 °F 42.8 °F 31% 29.92 in 6.2 mi SE 6.9 mph - N/A   Scattered Clouds
6:20 PM 75.2 °F 42.8 °F 31% 29.92 in 6.2 mi ESE 6.9 mph - N/A   Partly Cloudy
6:50 PM 75.2 °F 44.6 °F 34% 29.92 in 6.2 mi East 6.9 mph - N/A   Scattered Clouds
7:20 PM 73.4 °F 46.4 °F 38% 29.95 in 6.2 mi East 5.8 mph - N/A   Partly Cloudy
7:50 PM 69.8 °F 51.8 °F 53% 29.95 in - ENE 9.2 mph - N/A   Clear
8:20 PM 68.0 °F 53.6 °F 60% 29.95 in - NE 10.4 mph - N/A   Clear
8:50 PM 68.0 °F 55.4 °F 64% 29.98 in - NE 11.5 mph - N/A   Clear
9:20 PM 66.2 °F 55.4 °F 68% 29.98 in - NE 11.5 mph - N/A   Clear
9:50 PM 66.2 °F 55.4 °F 68% 29.98 in - NE 12.7 mph - N/A   Clear
10:20 PM 66.2 °F 55.4 °F 68% 29.98 in - NE 11.5 mph - N/A   Clear
10:50 PM 66.2 °F 55.4 °F 68% 29.98 in - NE 10.4 mph - N/A   Clear
11:20 PM 64.4 °F 55.4 °F 73% 29.98 in - NE 8.1 mph - N/A   Clear
11:50 PM 64.4 °F 53.6 °F 68% 29.98 in - ENE 9.2 mph - N/A   Clear